World > North America > United States > Texas

Rice, Texas Regional Weather

Lat: 32.24N, Lon: 96.5W
Wx Zone: TXZ146Web Search

If you are on your PC, you can easily pass this page to your phone by scanning the QR Code near the bottom with your camera.

Feedback


°F Click to change Rice hourly weather to Imperial units.Click to change Rice hourly weather to Metric units. °C
Rice Weather Map
UTC Time: 4/10/2021, 18:46
Your Time:

Rice, TX Regional Weather

Expires:202104101900;;342395
ASUS44 KFWD 101815
RWRTX 
NORTH TEXAS HOURLY WEATHER ROUNDUP
NATIONAL WEATHER SERVICE FORT WORTH TX
100 PM CDT SAT APR 10 2021

NOTE: "FAIR" INDICATES FEW OR NO CLOUDS BELOW 12,000 FEET WITH NO
SIGNIFICANT WEATHER AND/OR OBSTRUCTIONS TO VISIBILITY.


TXZ143>147-156>162-174-175-101900-
CENTRAL TEXAS
  
CITY           SKY/WX    TMP DP  RH WIND       PRES   REMARKS
WACO           FAIR      72  33  24 N18G25    29.93F                  
6HR MIN TEMP:  54; 6HR MAX TEMP:  72;                                

WACO-TSTC      SUNNY     72  34  25 N14G23    29.93F                  
WACO-MCGREGOR  FAIR      69  36  29 N13G21    29.94F                  
6HR MIN TEMP:  53; 6HR MAX TEMP:  69;                                

HILLSBORO      FAIR      69  39  33 N15       29.94F                  
6HR MIN TEMP:  46; 6HR MAX TEMP:  69;                                

CORSICANA      FAIR      69  39  33 NW15G23   29.93F                  
6HR MIN TEMP:  54; 6HR MAX TEMP:  69;                                

MEXIA          FAIR      69  39  33 N12G18    29.92F                  
6HR MIN TEMP:  54; 6HR MAX TEMP:  69;                                

HEARNE         FAIR      72  43  35 CALM      29.91F                  
6HR MIN TEMP:  57; 6HR MAX TEMP:  72;                                

CAMERON        FAIR      70  42  36 N13G18    29.91F                  
6HR MIN TEMP:  55; 6HR MAX TEMP:  70;                                

TEMPLE         FAIR      70  36  28 N18       29.93F                  
6HR MIN TEMP:  53; 6HR MAX TEMP:  70;                                

KILLEEN        FAIR      71  31  23 N12       29.92F                  
6HR MIN TEMP:  53; 6HR MAX TEMP:  71;                                

KILLEEN-SKYLRK FAIR      72  34  24 N12G20    29.94F                  
6HR MIN TEMP:  54; 6HR MAX TEMP:  72;                                

FORT HOOD      FAIR      71  31  23 N14G21    29.93F                  
6HR MIN TEMP:  53; 6HR MAX TEMP:  71;                                

GATESVILLE     FAIR      70  30  23 N13G18    29.96F                  
HAMILTON       FAIR      70  32  24 N10G18    29.98F                  
6HR MIN TEMP:  49; 6HR MAX TEMP:  70;                                

$$


SKY/WX - Weather  TMP - Temperature  DP - Dew Point  RH - Relative Humidity
WIND - Wind Direction/Speed PRES - Barometric Pressure VSB - Visibility
WCI - Wind Chill Index E13G22 Wind - East Wind 13 mph/Gusts of 22 mph